#timestamp,LO_Frequency,Hit,StdDev 
1626285615.3,286046998.5,P
1626285635.2,286046998.3,N
1626285655.0,286046999.1,N
1626285655.9,286046999.1,N
1626285675.7,286046997.0,Y
1626285695.6,286046998.5,P
1626285715.4,286046998.7,P
1626285735.3,286046999.1,P
1626285755.1,286046999.3,N
1626285775.8,286046999.2,N
1626285795.7,286046996.7,Y
1626285815.5,286046999.1,P
1626285835.4,286047000.8,P
1626285855.2,286047000.4,N
1626285875.0,286047000.5,N
1626285875.9,286047000.5,N
1626285895.8,286047000.8,N
1626285915.6,286047000.6,N
1626285935.5,286047000.9,N
1626285955.3,286047000.6,N
1626285975.1,286047000.8,N
1626285995.9,286047001.2,N
1626286015.7,286046999.6,N
1626286035.5,286046998.6,N
1626286055.4,286046998.8,N
1626286075.2,286046999.3,N
1626286095.1,286046999.4,N
1626286096.0,286046999.4,N
1626286115.8,286046999.0,N
1626286135.6,286046999.4,N
1626286155.5,286046998.9,N
1626286175.3,286046999.5,N
1626286195.1,286046997.0,Y
1626286215.9,286046997.2,P
1626286235.7,286046997.8,N
1626286255.6,286046997.3,N
1626286275.4,286046997.3,N
1626286295.2,286046997.7,N
1626286315.1,286046996.8,Y
1626286316.0,286046996.8,P
1626286335.8,286047001.0,N
1626286355.6,286047000.3,N
1626286375.5,286047000.0,N
1626286395.3,286047000.7,N
1626286415.2,286047000.8,N
1626286435.9,286047000.9,N
1626286455.7,286046999.9,N
1626286475.6,286046999.9,N
1626286495.4,286047001.0,N
1626286515.2,286047001.2,N
1626286535.1,286047000.7,N
1626286536.0,286047000.7,N
1626286555.8,286046998.2,N
1626286575.7,286047000.6,N
1626286595.5,286046999.9,N
1626286615.3,286047000.5,N
1626286635.2,286047002.8,N
1626286655.9,286047002.7,N
1626286675.7,286047000.2,N
1626286695.6,286047000.3,N
1626286715.4,286047000.1,N
1626286735.2,286047002.7,N
1626286755.1,286046999.9,N
1626286756.0,286046999.9,N
1626286775.8,286047000.3,N
1626286795.7,286047000.7,N
1626286815.5,286046998.2,N
1626286835.3,286046998.3,N
1626286855.2,286047011.9,Y
1626286875.0,286046996.9,P
1626286875.9,286046996.9,N
1626286895.8,286046997.0,N
1626286915.6,286046998.1,N
1626286935.4,286046998.8,N
1626286955.3,286046998.4,N
1626286975.1,286046999.3,N
1626286976.0,286046999.3,N
1626286995.8,286046999.4,N
1626287015.7,286046998.3,N
1626287035.5,286046998.3,N
1626287055.3,286046998.3,N
1626287075.2,286047000.3,N
1626287095.0,286047000.7,N
1626287095.9,286047000.7,N
1626287115.8,286047000.6,N
1626287135.6,286047000.9,N
1626287155.4,286046998.1,N
1626287175.3,286047001.1,N
1626287195.1,286046998.5,N
1626287215.9,286046998.9,N
1626287235.7,286046999.6,N
1626287255.5,286046996.5,N
1626287275.4,286046996.5,N
1626287295.2,286046999.4,N
1626287315.0,286047001.0,N
1626287315.9,286047001.0,N
1626287335.8,286047000.7,N
1626287355.6,286046998.7,N
1626287375.5,286046999.0,N
1626287395.3,286046998.2,N
1626287415.1,286047002.8,N
1626287435.9,286047000.1,N
1626287455.7,286047001.0,N
1626287475.5,286047002.8,N
1626287495.4,286047004.2,N
1626287515.2,286047003.4,N
1626287535.1,286047003.4,N
1626287536.0,286047003.4,N
1626287555.8,286047001.3,N
1626287575.6,286047002.0,N
1626287595.5,286047002.5,N
1626287615.3,286047002.3,N
1626287635.1,286047001.8,N
1626287655.9,286047002.1,N
1626287675.7,286047003.7,N
1626287695.6,286047003.7,N
1626287715.4,286047003.2,N
1626287735.2,286047001.7,N
1626287755.1,286047002.2,N
1626287756.0,286047002.2,N
1626287775.8,286047004.2,N
1626287795.6,286047003.1,N
1626287815.5,286047006.0,Y
1626287835.3,286047003.8,P
1626287855.2,286047003.0,N
1626287875.9,286047005.4,P
1626287895.7,286047005.6,Y
1626287915.6,286047002.8,P
1626287935.4,286046999.7,N
1626287955.3,286047002.6,N
1626287975.1,286046999.8,N
1626287976.0,286046999.8,N
1626287995.8,286047000.2,N
1626288015.7,286047002.8,N
1626288035.5,286047000.3,N
1626288055.3,286047002.7,N
1626288075.2,286047002.0,N
1626288095.0,286047001.5,N
1626288095.9,286047001.5,N
1626288115.8,286047001.6,N
1626288135.6,286047002.4,N
1626288155.4,286047001.4,N
1626288175.3,286047004.2,Y
1626288195.1,286047002.3,P
1626288215.8,286047011.9,P
1626288235.7,286047000.1,N
1626288255.5,286047000.5,N
1626288275.4,286047000.8,N
1626288295.2,286046998.4,N
1626288315.0,286046998.2,N
1626288315.9,286046998.2,N
1626288335.8,286047000.9,N
1626288355.6,286046998.2,N
1626288375.4,286046998.4,N
1626288395.3,286046998.2,N
1626288415.1,286047001.1,N
1626288435.9,286046998.3,N
1626288455.7,286046997.4,N
1626288475.5,286046997.3,N
1626288495.4,286046998.0,N
1626288515.2,286046998.0,N
1626288535.0,286046994.9,N
1626288535.9,286046994.9,N
1626288555.8,286046995.9,N
1626288575.6,286046997.4,N
1626288595.4,286046995.1,N
1626288615.3,286046995.8,N
1626288635.1,286046995.6,N
1626288655.9,286046995.1,N
1626288675.7,286046997.7,N
1626288695.5,286046997.6,N
1626288715.4,286046995.5,N
1626288735.2,286046993.5,N
1626288755.0,286046993.7,N
1626288756.0,286046993.7,N
1626288775.8,286046994.4,N
1626288795.6,286046992.9,Y
1626288815.5,286046996.1,P
1626288835.3,286046993.7,P
1626288855.1,286046993.3,P
1626288875.9,286046993.9,Y
1626288895.7,286046998.4,P
1626288915.6,286046999.1,N
1626288935.4,286046997.9,N
1626288955.2,286046997.7,N
1626288975.1,286046997.5,N
1626288976.0,286046997.5,N
1626288995.8,286046997.5,N
1626289015.6,286046995.6,Y
1626289035.5,286046999.5,P
1626289055.3,286046999.4,N
1626289075.2,286046999.4,N
1626289095.9,286046998.6,N
1626289115.7,286046999.1,N
1626289135.6,286046998.9,N
1626289155.4,286046996.7,Y
1626289175.2,286046998.5,P
1626289195.1,286046999.5,N
1626289196.0,286046999.5,N
